EW7526 Weather Reports


Display with metric or nautical units.
time (UTC)temp
F
wind
direction
speed
MPH
gust
MPH
rain 1hr
in
rain 24hr
in
rain mn
in
humidity
%
barometer
mb
20180723173106 105 115 1.0 3.0 0.00 0.00 0.00 22 1011.3
20180723172605 104 193 1.0 2.0 0.00 0.00 0.00 22 1011.3
20180723172106 104 18 2.0 3.0 0.00 0.00 0.00 22 1011.4
20180723171605 103 20 1.0 5.0 0.00 0.00 0.00 23 1011.4
20180723171105 104 356 3.0 6.0 0.00 0.00 0.00 23 1011.4
20180723170605 103 313 2.0 6.0 0.00 0.00 0.00 23 1011.5
20180723170107 103 323 2.0 3.0 0.00 0.00 0.00 23 1011.4
20180723165606 102 355 2.0 5.0 0.00 0.00 0.00 23 1011.4
20180723165106 102 348 2.0 3.0 0.00 0.00 0.00 23 1011.4
20180723164606 102 323 3.0 6.0 0.00 0.00 0.00 24 1011.4
20180723164106 101 1 3.0 7.0 0.00 0.00 0.00 24 1011.4
20180723163606 101 20 6.0 10.0 0.00 0.00 0.00 24 1011.3
20180723163109 101 23 5.0 9.0 0.00 0.00 0.00 24 1011.3
20180723162608 101 0 7.0 12.0 0.00 0.00 0.00 24 1011.3
20180723162109 101 358 6.0 12.0 0.00 0.00 0.00 24 1011.3
20180723161609 101 350 6.0 9.0 0.00 0.00 0.00 24 1011.2
20180723161108 100 6 5.0 9.0 0.00 0.00 0.00 25 1011.3
20180723160609 100 344 5.0 9.0 0.00 0.00 0.00 25 1011.2
20180723160111 100 9 3.0 6.0 0.00 0.00 0.00 25 1011.2
20180723155610 100 328 2.0 3.0 0.00 0.00 0.00 25 1011.3
20180723155108 99 350 1.0 5.0 0.00 0.00 0.00 26 1011.4
20180723154609 99 351 3.0 7.0 0.00 0.00 0.00 26 1011.5
20180723154108 99 11 2.0 7.0 0.00 0.00 0.00 26 1011.5
20180723153608 99 355 2.0 3.0 0.00 0.00 0.00 26 1011.6
20180723153109 98 23 2.0 5.0 0.00 0.00 0.00 26 1011.6
20180723152608 98 1 1.0 3.0 0.00 0.00 0.00 26 1011.5
20180723152108 97 56 2.0 5.0 0.00 0.00 0.00 27 1011.5
20180723151608 97 350 2.0 5.0 0.00 0.00 0.00 27 1011.6
20180723151108 96 350 3.0 5.0 0.00 0.00 0.00 28 1011.5
20180723150608 95 25 5.0 7.0 0.00 0.00 0.00 28 1011.6
20180723150109 94 19 5.0 8.0 0.00 0.00 0.00 29 1011.6
20180723145609 94 20 4.0 8.0 0.00 0.00 0.00 29 1011.6
20180723145109 93 5 4.0 8.0 0.00 0.00 0.00 30 1011.6
20180723144608 92 14 5.0 9.0 0.00 0.00 0.00 31 1011.6
20180723144109 92 16 5.0 9.0 0.00 0.00 0.00 31 1011.6
20180723143608 92 2 4.0 8.0 0.00 0.00 0.00 32 1011.6
20180723143109 91 26 5.0 7.0 0.00 0.00 0.00 32 1011.6
20180723142608 91 9 4.0 7.0 0.00 0.00 0.00 33 1011.5
20180723142109 90 1 5.0 8.0 0.00 0.00 0.00 33 1011.6
20180723141608 89 10 3.0 8.0 0.00 0.00 0.00 34 1011.7
20180723141109 89 11 6.0 9.0 0.00 0.00 0.00 34 1011.7
20180723140609 89 16 3.0 8.0 0.00 0.00 0.00 34 1011.6
20180723140109 88 348 4.0 8.0 0.00 0.00 0.00 34 1011.6
20180723135608 88 353 5.0 8.0 0.00 0.00 0.00 35 1011.6
20180723135108 88 10 5.0 7.0 0.00 0.00 0.00 35 1011.6
20180723134608 88 356 5.0 8.0 0.00 0.00 0.00 35 1011.5
20180723134108 87 17 4.0 8.0 0.00 0.00 0.00 35 1011.5
20180723133608 87 8 6.0 7.0 0.00 0.00 0.00 35 1011.4
20180723133108 87 14 5.0 6.0 0.00 0.00 0.00 35 1011.4
20180723132608 87 17 3.0 3.0 0.00 0.00 0.00 36 1011.5
20180723132108 87 19 1.0 2.0 0.00 0.00 0.00 36 1011.5
20180723131608 87 45 1.0 2.0 0.00 0.00 0.00 35 1011.4
20180723131108 87 25 3.0 5.0 0.00 0.00 0.00 35 1011.3
20180723130608 87 23 2.0 3.0 0.00 0.00 0.00 35 1011.2
20180723130113 87 27 2.0 3.0 0.00 0.00 0.00 35 1011.1
20180723125611 87 51 2.0 3.0 0.00 0.00 0.00 35 1011.1
20180723125108 87 353 2.0 5.0 0.00 0.00 0.00 36 1011.0
20180723124608 86 38 3.0 7.0 0.00 0.00 0.00 36 1011.0
20180723124109 86 10 2.0 3.0 0.00 0.00 0.00 36 1011.0
20180723123608 86 56 0.0 1.0 0.00 0.00 0.00 36 1011.0
20180723123108 86 11 0.0 2.0 0.00 0.00 0.00 36 1011.1
20180723122608 86 6 0.0 2.0 0.00 0.00 0.00 35 1011.0
20180723122108 87 8 2.0 3.0 0.00 0.00 0.00 35 1010.8
20180723121608 87 0 2.0 3.0 0.00 0.00 0.00 35 1010.8
20180723121108 87 20 3.0 5.0 0.00 0.00 0.00 35 1010.8
20180723120608 87 43 2.0 3.0 0.00 0.00 0.00 35 1010.8
20180723120109 87 28 1.0 3.0 0.00 0.00 0.00 35 1010.8
20180723115608 87 26 3.0 7.0 0.00 0.00 0.00 34 1010.7
20180723115108 87 16 5.0 12.0 0.00 0.00 0.00 34 1010.7
20180723114608 87 7 3.0 7.0 0.00 0.00 0.00 34 1010.6
20180723114108 88 23 3.0 6.0 0.00 0.00 0.00 34 1010.6
20180723113608 88 0 3.0 6.0 0.00 0.00 0.00 33 1010.6
20180723113108 87 26 3.0 5.0 0.00 0.00 0.00 34 1010.6
20180723112608 87 1 2.0 3.0 0.00 0.00 0.00 33 1010.7
20180723112107 87 19 2.0 3.0 0.00 0.00 0.00 33 1010.7
20180723111608 87 15 2.0 3.0 0.00 0.00 0.00 33 1010.7
20180723111108 87 19 2.0 3.0 0.00 0.00 0.00 32 1010.7
20180723110608 87 15 2.0 3.0 0.00 0.00 0.00 32 1010.7
20180723110109 87 21 1.0 3.0 0.00 0.00 0.00 31 1010.8
20180723105608 87 16 1.0 3.0 0.00 0.00 0.00 31 1010.7
20180723105108 87 32 2.0 5.0 0.00 0.00 0.00 31 1010.7
20180723104608 87 6 3.0 6.0 0.00 0.00 0.00 31 1010.6
20180723104109 87 29 2.0 3.0 0.00 0.00 0.00 31 1010.6
20180723103608 87 7 2.0 3.0 0.00 0.00 0.00 32 1010.5
20180723103108 87 0 1.0 2.0 0.00 0.00 0.00 33 1010.5
20180723102608 87 338 1.0 3.0 0.00 0.00 0.00 32 1010.4
20180723102107 88 349 1.0 3.0 0.00 0.00 0.00 32 1010.4
20180723101608 88 12 3.0 5.0 0.00 0.00 0.00 32 1010.4
20180723101108 87 353 2.0 3.0 0.00 0.00 0.00 33 1010.5
20180723100607 87 0 0.0 1.0 0.00 0.00 0.00 33 1010.7
20180723100109 87 347 0.0 1.0 0.00 0.00 0.00 33 1010.7
20180723095608 87 345 0.0 1.0 0.00 0.00 0.00 32 1010.7
20180723095108 87 345 0.0 1.0 0.00 0.00 0.00 32 1010.7
20180723094608 87 346 1.0 1.0 0.00 0.00 0.00 32 1010.8
20180723094108 88 40 0.0 0.0 0.00 0.00 0.00 31 1010.9
20180723093608 88 39 0.0 2.0 0.00 0.00 0.00 31 1010.8
20180723093108 88 44 0.0 2.0 0.00 0.00 0.00 31 1010.8
20180723092607 89 44 0.0 1.0 0.00 0.00 0.00 30 1010.7
20180723092108 89 13 2.0 7.0 0.00 0.00 0.00 31 1010.7
20180723091608 89 8 2.0 6.0 0.00 0.00 0.00 31 1010.6
20180723091108 89 356 3.0 7.0 0.00 0.00 0.00 31 1010.5
20180723090607 89 11 4.0 8.0 0.00 0.00 0.00 31 1010.5
20180723090110 89 11 5.0 8.0 0.00 0.00 0.00 31 1010.5
20180723085608 89 7 3.0 6.0 0.00 0.00 0.00 31 1010.6
20180723085108 89 21 4.0 8.0 0.00 0.00 0.00 31 1010.5
20180723084608 89 12 5.0 9.0 0.00 0.00 0.00 31 1010.6
20180723084108 88 18 5.0 8.0 0.00 0.00 0.00 30 1010.5
20180723083607 88 33 2.0 5.0 0.00 0.00 0.00 28 1010.5
20180723083107 88 6 2.0 2.0 0.00 0.00 0.00 29 1010.6
20180723082607 88 23 1.0 3.0 0.00 0.00 0.00 29 1010.8
20180723082108 88 14 2.0 3.0 0.00 0.00 0.00 29 1010.7
20180723081608 88 6 2.0 3.0 0.00 0.00 0.00 30 1010.7
20180723081107 88 20 1.0 2.0 0.00 0.00 0.00 30 1010.8
20180723080608 88 20 0.0 1.0 0.00 0.00 0.00 30 1010.8
20180723080112 88 20 2.0 6.0 0.00 0.00 0.00 30 1010.9
20180723075607 87 17 1.0 3.0 0.00 0.00 0.00 29 1011.0
20180723075107 88 11 0.0 2.0 0.00 0.00 0.00 29 1010.9
20180723074607 88 358 1.0 2.0 0.00 0.00 0.00 29 1011.0
20180723074107 88 3 1.0 2.0 0.00 0.00 0.00 29 1011.0
20180723073607 88 14 1.0 2.0 0.00 0.00 0.00 29 1011.1
20180723073108 88 150 0.0 1.0 0.00 0.00 0.00 29 1011.0
20180723072608 88 150 0.0 0.0 0.00 0.00 0.00 29 1011.1
20180723072108 88 150 0.0 0.0 0.00 0.00 0.00 28 1011.1
20180723071607 89 150 0.0 1.0 0.00 0.00 0.00 28 1011.2
20180723071109 90 156 0.0 0.0 0.00 0.00 0.00 29 1011.1
20180723070607 90 156 0.0 0.0 0.00 0.00 0.00 28 1011.2
20180723070108 90 156 0.0 1.0 0.00 0.00 0.00 28 1011.3
20180723065608 90 9 0.0 0.0 0.00 0.00 0.00 28 1011.4
20180723065107 90 9 0.0 0.0 0.00 0.00 0.00 27 1011.3
20180723064607 91 9 0.0 0.0 0.00 0.00 0.00 27 1011.3
20180723064107 91 9 0.0 1.0 0.00 0.00 0.00 27 1011.4
20180723063608 91 9 0.0 1.0 0.00 0.00 0.00 26 1011.4
20180723063106 92 9 0.0 1.0 0.00 0.00 0.00 26 1011.4
20180723062607 92 9 1.0 2.0 0.00 0.00 0.00 25 1011.3
20180723062107 92 247 0.0 1.0 0.00 0.00 0.00 26 1011.3
20180723061608 93 247 0.0 1.0 0.00 0.00 0.00 25 1011.4
20180723061107 93 358 0.0 1.0 0.00 0.00 0.00 25 1011.4
20180723060607 93 20 0.0 1.0 0.00 0.00 0.00 25 1011.3
20180723060114 93 25 0.0 2.0 0.00 0.00 0.00 24 1011.3
20180723055608 93 15 0.0 1.0 0.00 0.00 0.00 24 1011.2
20180723055107 93 15 1.0 2.0 0.00 0.00 0.00 24 1011.2
20180723054608 93 358 1.0 2.0 0.00 0.00 0.00 24 1011.3
20180723054107 93 345 0.0 1.0 0.00 0.00 0.00 23 1011.4
20180723053607 93 345 0.0 1.0 0.00 0.00 0.00 23 1011.5
20180723053109 93 344 0.0 0.0 0.00 0.00 0.00 24 1011.6
20180723052607 93 344 0.0 1.0 0.00 0.00 0.00 23 1011.7
20180723052107 94 291 0.0 1.0 0.00 0.00 0.00 23 1011.6
20180723051607 94 141 0.0 1.0 0.00 0.00 0.00 22 1011.7
20180723051108 94 141 0.0 1.0 0.00 0.00 0.00 22 1011.8
20180723050606 94 145 0.0 1.0 0.00 0.00 0.00 23 1011.7
20180723050108 94 145 0.0 1.0 0.00 0.00 0.00 23 1011.7
20180723045607 94 145 0.0 0.0 0.00 0.00 0.00 23 1011.7
20180723045107 94 221 0.0 0.0 0.00 0.00 0.00 23 1011.7
20180723044607 94 221 0.0 0.0 0.00 0.00 0.00 22 1011.6
20180723044107 94 221 0.0 0.0 0.00 0.00 0.00 23 1011.6
20180723043606 95 221 0.0 0.0 0.00 0.00 0.00 22 1011.5
20180723043107 95 221 0.0 0.0 0.00 0.00 0.00 22 1011.5
20180723042607 96 221 0.0 1.0 0.00 0.00 0.00 22 1011.5
20180723042107 97 221 0.0 1.0 0.00 0.00 0.00 21 1011.3
20180723041612 97 221 0.0 1.0 0.00 0.00 0.00 21 1011.2
20180723041106 97 243 0.0 1.0 0.00 0.00 0.00 22 1011.2
20180723040607 97 245 0.0 0.0 0.00 0.00 0.00 22 1011.1
20180723040108 97 245 1.0 2.0 0.00 0.00 0.00 21 1011.1
20180723035606 97 166 0.0 0.0 0.00 0.00 0.00 22 1011.0
20180723035107 98 156 0.0 0.0 0.00 0.00 0.00 22 1011.0
20180723034607 98 156 0.0 2.0 0.00 0.00 0.00 22 1011.0
20180723034107 98 231 0.0 0.0 0.00 0.00 0.00 22 1010.9
20180723033606 99 231 0.0 1.0 0.00 0.00 0.00 22 1010.9
20180723033107 99 217 0.0 3.0 0.00 0.00 0.00 22 1010.9
20180723032609 100 251 0.0 1.0 0.00 0.00 0.00 22 1010.7
20180723032107 100 234 1.0 3.0 0.00 0.00 0.00 22 1010.7
20180723031607 100 214 2.0 5.0 0.00 0.00 0.00 22 1010.6
20180723031107 100 237 3.0 8.0 0.00 0.00 0.00 21 1010.6
20180723030607 100 233 5.0 8.0 0.00 0.00 0.00 21 1010.6
20180723030107 101 206 3.0 6.0 0.00 0.00 0.00 21 1010.5
20180723025607 101 188 3.0 5.0 0.00 0.00 0.00 21 1010.4
20180723025107 101 234 5.0 9.0 0.00 0.00 0.00 21 1010.4
20180723024606 101 220 3.0 7.0 0.00 0.00 0.00 20 1010.4
20180723024106 102 215 4.0 8.0 0.00 0.00 0.00 20 1010.3
20180723023607 102 225 1.0 3.0 0.00 0.00 0.00 18 1010.3
20180723023106 103 261 0.0 3.0 0.00 0.00 0.00 16 1010.3
20180723022606 104 267 1.0 3.0 0.00 0.00 0.00 15 1010.2
20180723022106 104 250 2.0 6.0 0.00 0.00 0.00 15 1010.2
20180723021606 103 293 2.0 3.0 0.00 0.00 0.00 16 1010.2
20180723021106 104 291 1.0 3.0 0.00 0.00 0.00 16 1010.1
20180723020606 104 288 1.0 3.0 0.00 0.00 0.00 16 1010.1
20180723020107 104 295 2.0 3.0 0.00 0.00 0.00 16 1010.2
20180723015607 104 277 1.0 5.0 0.00 0.00 0.00 16 1010.2
20180723015110 104 182 3.0 9.0 0.00 0.00 0.00 17 1010.1
20180723014607 104 255 1.0 3.0 0.00 0.00 0.00 16 1010.2
20180723014106 105 221 2.0 3.0 0.00 0.00 0.00 16 1010.2
20180723013607 105 190 4.0 9.0 0.00 0.00 0.00 16 1010.2
20180723013106 105 241 2.0 5.0 0.00 0.00 0.00 16 1010.2
20180723012606 105 216 2.0 6.0 0.00 0.00 0.00 16 1010.2
20180723012106 104 185 5.0 7.0 0.00 0.00 0.00 16 1010.2
20180723011607 104 184 5.0 8.0 0.00 0.00 0.00 16 1010.2
20180723011106 105 192 4.0 7.0 0.00 0.00 0.00 16 1010.3
20180723010607 105 187 5.0 8.0 0.00 0.00 0.00 16 1010.3
20180723010107 105 256 4.0 10.0 0.00 0.00 0.00 16 1010.2
20180723005606 105 194 4.0 9.0 0.00 0.00 0.00 17 1010.2
20180723005106 105 188 3.0 8.0 0.00 0.00 0.00 17 1010.2
20180723004606 105 215 3.0 7.0 0.00 0.00 0.00 17 1010.2
20180723004107 105 188 2.0 7.0 0.00 0.00 0.00 17 1010.3
20180723003606 105 195 2.0 7.0 0.00 0.00 0.00 18 1010.3
20180723003106 105 161 4.0 7.0 0.00 0.00 0.00 18 1010.4
20180723002606 105 221 6.0 9.0 0.00 0.00 0.00 18 1010.4
20180723002106 105 231 2.0 3.0 0.00 0.00 0.00 18 1010.4
20180723001606 105 190 4.0 10.0 0.00 0.00 0.00 18 1010.4
20180723001106 105 202 6.0 10.0 0.00 0.00 0.00 17 1010.6
20180723000606 106 244 3.0 7.0 0.00 0.00 0.00 17 1010.7
20180723000107 106 168 3.0 8.0 0.00 0.00 0.00 17 1010.8
20180722235606 106 239 6.0 10.0 0.00 0.00 0.00 17 1010.7
20180722235106 106 191 2.0 3.0 0.00 0.00 0.00 16 1010.8
20180722234606 106 227 1.0 2.0 0.00 0.00 0.00 16 1010.8
20180722234106 106 285 3.0 6.0 0.00 0.00 0.00 16 1010.8
20180722233606 106 281 2.0 6.0 0.00 0.00 0.00 16 1010.8
20180722233106 106 169 6.0 10.0 0.00 0.00 0.00 17 1010.8
20180722232606 105 195 3.0 10.0 0.00 0.00 0.00 17 1010.8
20180722232106 105 183 3.0 9.0 0.00 0.00 0.00 16 1010.8
20180722231607 105 186 1.0 6.0 0.00 0.00 0.00 16 1011.1
20180722231106 105 205 3.0 8.0 0.00 0.00 0.00 16 1011.1
20180722230606 106 266 2.0 8.0 0.00 0.00 0.00 17 1011.2
20180722230107 105 192 5.0 10.0 0.00 0.00 0.00 17 1011.2
20180722225606 105 203 5.0 7.0 0.00 0.00 0.00 17 1011.2
20180722225106 106 201 5.0 12.0 0.00 0.00 0.00 17 1011.3
20180722224606 105 169 4.0 9.0 0.00 0.00 0.00 17 1011.3
20180722224106 106 220 6.0 10.0 0.00 0.00 0.00 17 1011.4
20180722223606 106 206 5.0 9.0 0.00 0.00 0.00 17 1011.4
20180722223106 106 188 6.0 9.0 0.00 0.00 0.00 16 1011.5
20180722222608 106 187 2.0 7.0 0.00 0.00 0.00 16 1011.6
20180722222106 105 198 3.0 9.0 0.00 0.00 0.00 17 1011.7
20180722221606 105 228 2.0 12.0 0.00 0.00 0.00 16 1011.8
20180722221106 106 286 3.0 8.0 0.00 0.00 0.00 16 1011.9
20180722220606 105 271 2.0 3.0 0.00 0.00 0.00 16 1012.0
20180722220107 105 310 3.0 6.0 0.00 0.00 0.00 16 1012.2
20180722215606 106 286 2.0 6.0 0.00 0.00 0.00 16 1012.3
20180722215105 105 270 3.0 6.0 0.00 0.00 0.00 16 1012.4
20180722214606 105 299 2.0 10.0 0.00 0.00 0.00 17 1012.4
20180722214106 105 173 5.0 9.0 0.00 0.00 0.00 16 1012.6
20180722213606 105 233 2.0 8.0 0.00 0.00 0.00 17 1012.4
20180722213105 105 149 2.0 9.0 0.00 0.00 0.00 17 1012.5
20180722212606 105 227 6.0 12.0 0.00 0.00 0.00 17 1012.6
20180722212105 106 249 3.0 9.0 0.00 0.00 0.00 17 1012.7
20180722211606 105 262 3.0 6.0 0.00 0.00 0.00 17 1012.8
20180722211105 104 234 1.0 7.0 0.00 0.00 0.00 18 1012.8
20180722210606 104 233 3.0 7.0 0.00 0.00 0.00 18 1012.9
20180722210106 104 215 2.0 8.0 0.00 0.00 0.00 18 1012.9
20180722205606 104 184 4.0 12.0 0.00 0.00 0.00 18 1013.0
20180722205106 103 171 3.0 8.0 0.00 0.00 0.00 18 1013.1
20180722204608 104 182 5.0 9.0 0.00 0.00 0.00 18 1013.2
20180722204106 104 217 6.0 10.0 0.00 0.00 0.00 18 1013.2
20180722203606 104 211 3.0 10.0 0.00 0.00 0.00 18 1013.3
20180722203105 104 199 3.0 7.0 0.00 0.00 0.00 18 1013.2
20180722202606 103 213 1.0 3.0 0.00 0.00 0.00 19 1013.3
20180722202106 103 187 3.0 5.0 0.00 0.00 0.00 19 1013.5
20180722201605 103 209 3.0 7.0 0.00 0.00 0.00 20 1013.5
20180722201105 102 203 1.0 6.0 0.00 0.00 0.00 20 1013.6
20180722200606 102 166 2.0 8.0 0.00 0.00 0.00 21 1013.5
20180722200106 102 155 2.0 6.0 0.00 0.00 0.00 21 1013.6
20180722195605 103 213 5.0 9.0 0.00 0.00 0.00 21 1013.7
20180722195106 102 197 5.0 9.0 0.00 0.00 0.00 22 1013.6
20180722194606 102 150 3.0 7.0 0.00 0.00 0.00 23 1013.6
20180722194105 102 210 3.0 6.0 0.00 0.00 0.00 23 1013.7
20180722193606 101 245 1.0 5.0 0.00 0.00 0.00 23 1013.9
20180722193106 101 13 0.0 3.0 0.00 0.00 0.00 24 1014.0
20180722192605 101 298 1.0 7.0 0.00 0.00 0.00 24 1014.1
20180722192105 102 221 3.0 6.0 0.00 0.00 0.00 24 1014.2
20180722191606 101 184 3.0 6.0 0.00 0.00 0.00 24 1014.3
20180722191106 101 285 3.0 7.0 0.00 0.00 0.00 24 1014.3
20180722190605 100 148 3.0 8.0 0.00 0.00 0.00 24 1014.4
20180722190107 99 203 3.0 10.0 0.00 0.00 0.00 25 1014.4
20180722185606 101 34 1.0 3.0 0.00 0.00 0.00 24 1014.4
20180722185105 101 148 3.0 8.0 0.00 0.00 0.00 25 1014.4
20180722184605 100 188 2.0 6.0 0.00 0.00 0.00 25 1014.4
20180722184105 100 84 1.0 3.0 0.00 0.00 0.00 24 1014.5
20180722183605 100 136 2.0 7.0 0.00 0.00 0.00 24 1014.6
20180722183105 99 200 7.0 13.0 0.00 0.00 0.00 24 1014.6
20180722182605 99 212 5.0 8.0 0.00 0.00 0.00 24 1014.6
20180722182105 99 243 1.0 3.0 0.00 0.00 0.00 25 1014.7
20180722181606 99 176 4.0 10.0 0.00 0.00 0.00 25 1014.9
20180722181105 100 154 2.0 5.0 0.00 0.00 0.00 25 1014.8
20180722180605 99 273 1.0 5.0 0.00 0.00 0.00 26 1014.8
20180722180106 99 189 2.0 5.0 0.00 0.00 0.00 25 1014.8
20180722175605 99 188 3.0 5.0 0.00 0.00 0.00 26 1014.9
20180722175106 99 130 2.0 6.0 0.00 0.00 0.00 26 1014.9
20180722174605 99 131 1.0 3.0 0.00 0.00 0.00 26 1015.0
20180722174105 98 121 1.0 5.0 0.00 0.00 0.00 25 1015.1
20180722173605 98 278 1.0 2.0 0.00 0.00 0.00 23 1015.1